Snowfall_Accumulation
0.0 0.0 0.0 0.0 0.0 0.0 0.0 0.0 0.0 0.0 0.0 0.0 0.0 0.0 0.0 0.0 0.0 0.0 0.0 0.0 0.0 0.0 0.0 0.0 0.0 0.0 0.0 0.0 0.0 0.0 0.0 0.0 0.0 0.0 0.0 0.0 0.0 0.0
0.0 0.0 0.0 0.0 0.0 0.0 0.0 0.0 0.0 0.3 0.0 0.0 0.0 0.0 0.0 0.0 0.0 0.0 0.0 0.0 0.0 0.0 0.0 0.0 0.0 0.0 0.0 0.0 0.0 0.0 0.0 0.0 0.0 0.0 0.0 0.0 0.0 0.0
0.0 0.0 0.0 0.0 0.0 0.0 0.0 0.0 0.0 0.0 0.0 1.7 1.3 0.9 0.0 0.0 0.0 0.0 0.0 0.0 0.0 0.1 0.1 0.0 0.0 0.0 0.0 0.0 0.0 0.0 0.0 0.0 0.0 0.0 0.0 0.0 0.0 0.0
0.0 0.0 0.0 0.0 0.0 0.0 0.0 0.6 0.0 0.1 1.5 1.1 0.3 0.2 0.1 0.0 0.0 0.0 0.0 0.1 0.2 0.0 0.0 0.0 0.0 0.0 0.0 0.0 0.1 0.2 0.0 0.0 0.0 0.0 0.0 0.0 0.0 0.0
0.0 0.0 0.0 0.0 0.0 0.1 1.1 0.4 0.2 1.4 0.7 1.1 0.3 0.0 0.0 0.0 0.0 0.0 0.0 0.0 0.0 0.0 0.0 0.0 0.0 0.0 0.0 0.0 0.3 0.6 0.6 0.4 0.0 0.3 0.0 0.0 0.0 0.0
0.0 0.0 0.0 0.0 0.3 0.8 1.4 0.8 0.6 0.4 0.3 0.8 0.4 1.0 0.5 0.1 0.6 0.2 0.0 0.0 0.0 0.0 0.0 0.0 0.0 0.0 0.0 0.0 0.0 0.0 0.0 0.0 0.0 0.0 0.1 0.1 0.0 0.0
1.1 2.6 1.9 1.0 0.7 0.3 0.6 0.9 0.3 0.3 1.4 3.0 2.8 1.6 0.9 0.3 0.1 0.0 0.1 0.0 0.0 0.0 0.0 0.0 0.0 0.0 0.0 0.0 0.0 0.0 0.0 0.0 0.1 0.1 0.3 0.3 0.5 0.1
1.6 1.6 1.0 1.7 1.3 0.1 0.1 0.2 0.5 2.0 3.5 4.4 3.5 1.6 0.0 0.1 0.1 0.2 1.2 1.9 1.9 0.0 0.1 0.0 0.0 0.0 0.0 0.0 0.0 0.1 0.2 0.0 0.2 0.6 0.7 1.0 0.7 0.2
2.8 2.5 1.7 0.8 0.6 0.4 0.0 0.4 1.0 2.5 2.6 0.9 0.5 0.3 0.5 0.1 2.0 3.7 2.6 2.9 1.6 0.0 0.3 0.4 0.0 0.0 0.0 0.0 0.0 0.0 0.1 0.0 0.2 0.1 0.6 0.7 0.8 0.8
0.7 0.7 0.0 0.1 0.1 0.3 0.7 2.7 1.7 0.5 0.0 0.1 0.2 0.4 1.1 1.5 2.0 2.1 1.0 1.0 0.5 0.0 0.2 2.0 0.3 0.0 0.0 0.0 0.0 0.0 0.0 0.0 0.3 0.6 0.5 0.8 0.8 0.5
0.1 0.0 0.2 0.1 0.1 0.7 2.4 1.9 0.2 0.0 0.0 0.0 0.7 0.6 0.1 0.0 0.1 1.9 2.9 2.9 2.0 0.2 0.1 0.9 0.5 0.5 0.1 0.1 0.0 0.0 0.5 0.4 0.9 0.3 0.8 0.6 1.0 0.4
0.0 0.2 0.0 0.2 0.5 3.1 1.4 0.3 0.6 0.1 0.8 0.7 0.0 0.0 0.0 0.0 0.0 0.2 3.8 9.1 4.4 3.8 0.1 3.3 1.4 0.9 7.6 2.1 1.7 1.2 0.0 0.0 0.0 0.1 0.1 0.4 0.6 0.7
0.7 0.1 0.0 0.3 2.6 0.9 0.3 0.1 0.3 0.1 0.2 0.1 1.0 0.0 0.0 0.7 0.9 1.2 2.4 9.5 12.2 6.9 0.0 8.0 9.1 4.0 8.7 2.9 3.0 3.0 2.3 0.0 0.0 0.0 0.0 0.1 0.3 0.7
0.4 0.2 0.6 2.1 0.0 0.1 0.0 0.2 0.3 0.5 0.0 0.2 0.2 0.2 0.2 0.3 0.1 0.3 0.8 2.0 3.8 7.9 3.4 5.6 17.3 8.1 11.6 8.2 4.0 4.3 4.0 3.2 1.6 1.7 2.3 2.3 1.5 1.2
0.4 1.2 1.2 0.0 0.0 0.0 0.0 0.0 0.0 0.1 0.5 1.5 1.0 0.4 0.2 0.7 1.1 3.9 4.3 4.5 5.2 5.5 6.9 7.0 10.4 10.5 13.7 12.2 8.5 4.8 7.2 5.8 5.2 7.9 8.2 7.3 3.1 2.6
1.7 1.0 0.1 0.0 0.0 0.0 0.0 0.0 0.0 0.2 1.7 3.2 3.4 2.1 2.4 4.1 4.1 5.1 8.8 8.5 11.1 8.5 8.1 7.6 7.4 9.8 12.6 8.0 9.0 7.8 6.3 11.5 8.4 8.8 10.8 8.8 5.8 3.3
0.6 0.0 0.0 0.0 0.0 0.0 0.0 0.0 0.0 0.0 1.1 1.6 3.2 3.4 4.3 5.3 6.3 7.9 11.0 13.0 13.1 9.3 8.7 8.3 7.2 7.5 7.4 7.2 8.7 6.9 8.3 10.2 11.9 12.4 13.1 14.1 9.7 2.7
0.0 0.0 0.0 0.1 0.0 0.2 0.1 1.7 2.2 2.1 2.5 5.2 5.6 5.6 7.1 8.0 9.1 10.8 12.6 13.2 11.9 8.4 8.5 7.3 6.1 6.4 4.4 5.0 6.4 10.3 9.4 12.0 12.6 13.0 12.7 14.1 12.3 5.6
0.0 0.3 1.9 2.0 2.0 3.1 0.7 3.6 5.2 4.4 6.0 7.8 7.9 7.7 8.8 9.9 10.9 11.4 10.7 10.8 9.1 7.2 6.8 6.0 7.0 9.4 10.4 5.1 4.0 7.1 16.2 13.9 11.0 10.7 9.2 8.2 9.4 8.9
0.2 2.2 3.2 3.7 4.3 5.1 5.7 6.4 6.2 5.6 7.0 6.9 8.6 8.9 9.7 12.6 12.5 11.5 9.8 9.3 8.6 5.9 4.6 2.9 4.0 7.8 15.7 13.8 12.2 8.4 10.2 15.0 12.3 11.4 8.3 7.2 5.8 2.9
1.9 2.0 2.7 3.1 4.0 4.5 4.7 5.2 6.0 8.1 10.1 11.2 9.5 9.8 10.2 14.0 12.3 8.8 8.1 5.7 5.6 5.4 5.0 1.7 0.8 4.6 7.6 9.4 8.5 4.7 8.7 9.9 9.0 13.9 11.8 9.9 6.8 5.5
0.3 1.6 1.6 1.2 3.4 4.1 5.5 5.5 6.8 7.2 8.1 8.4 8.8 9.6 11.1 12.6 11.9 8.5 6.2 7.2 5.7 4.8 4.6 2.8 4.2 6.5 6.9 6.7 5.5 5.1 6.5 6.8 4.1 4.9 5.0 8.7 16.5 18.3
1.1 1.4 1.7 2.6 3.1 3.7 5.0 6.8 8.3 8.4 9.0 11.4 11.2 10.5 10.9 10.7 6.0 6.3 6.1 6.2 7.2 6.7 5.2 6.1 4.4 4.0 4.1 5.5 6.5 6.2 3.5 3.7 3.5 4.5 7.9 5.6 5.8 3.8